Weather in Palmela

Portugal     38°34′17″N   8°54′06″W
temp.,
°C
wind,
m/s
gust,
m/s
humid.,
%
clouds,
%
prec.,
mm/h
press.,
hPa
HPBL,
m
4 december, sat
sat400:00+10nnw239270 0.0 102872
03:00+13wnw227898 0.0 102745
06:00+11wnw22940 0.0 102752
09:00+13wsw139869 0.0 1028108
12:00+18wnw57639 0.0 1027790
15:00+17wnw698086 0.2 1026692
18:00+13nnw58900 0.3 1027348
21:00+10nnw410870 0.0 1029356
5 december, sun
sun500:00+11nnw411820 0.0 1029419
03:00+10nnw49875 0.0 1029284
06:00+10nw410815 0.0 1029378
09:00+12nnw510708 0.0 10301055
12:00+16nnw7105324 0.0 10301432
15:00+16nnw81052100 0.0 10281289
18:00+12nnw611685 0.0 1029712
21:00+12nnw511747 0.0 1030583
6 december, mon
mon600:00+10nnw39875 0.0 1030276
03:00+10nnw38895 0.0 1029235
06:00+10nnw37817 0.0 1029156
09:00+12nw26712 0.0 1030242
12:00+17nnw46585 0.0 1029880
15:00+17nnw565911 0.0 1027887
18:00+13nnw22835 0.0 102735
21:00+12nw22905 0.0 102731
7 december, tue
tue700:00+11wnw119313 0.0 102626
03:00+12wsw129674 0.0 102527
06:00+12w229870 0.0 102446
09:00+14wsw269459 0.0 1024259
12:00+17wsw687599 0.1 1023801
15:00+17w6975100 0.1 1020722
18:00+14wsw6129296 0.1 1020601
21:00+15nnw5108022 0.2 1020601
8 december, wed
wed800:00+13nnw510800 0.2 1021672
03:00+13nw5863100 0.0 1022955
06:00+12wnw596197 0.1 1021849
09:00+13nw7116340 0.1 10221336
12:00+15nw8126062 0.3 10221566
15:00+15nw813595 0.1 10211636
18:00+12nnw7127013 0.2 10231108
21:00+11nw5107410 0.0 1024589